Regional Weather Roundup
Issued by NWS

Home | Current Version | Previous Version | Graphics & Text | Print | Product List | Glossary On
Versions: 1 2 3 4 5 6 7 8 9 10 11 12 13 14 15 16 17 18 19 20 21 22 23 24 25 26 27 28 29 30 31 32 33 34 35 36 37 38 39 40 41 42 43 44 45 46 47 48 49 50
000
ASUS43 KOAX 260510
RWRNE

WEATHER ROUNDUP FOR NEBRASKA
NATIONAL WEATHER SERVICE OMAHA NE
1200 AM CDT MON JUN 26 2017

NOTES: SATELLITE DATA IS BEING USED TO AUGMENT CLOUD COVER ABOVE
       12000 FEET.
       "FAIR" INDICATES FEW OR NO CLOUDS BELOW 12,000 FEET WITH NO
       SIGNIFICANT WEATHER AND/OR OBSTRUCTIONS TO VISIBILITY.

  * THESE STATIONS DO NOT REPORT WEATHER SUCH AS RAIN...SNOW OR FOG.

NEZ001>004-019>022-054>056-260600-
NEBRASKA PANHANDLE

CITY           SKY/WX    TMP DP  RH WIND       PRES   REMARKS
SCOTTSBLUFF    CLEAR     63  51  65 S7        30.23S
ALLIANCE       CLEAR     60  50  69 S10       30.22S
CHADRON        PTCLDY    59  43  55 CALM      30.21S
GORDON         FAIR      57  49  72 CALM      30.22S
KIMBALL        CLEAR     57  55  94 S7        30.30F
SIDNEY         CLEAR     55  52  89 S8        30.29S
$$

NEZ057>060-069>072-079>082-260600-
SOUTHWEST NEBRASKA

CITY           SKY/WX    TMP DP  RH WIND       PRES   REMARKS
NORTH PLATTE   CLEAR     60  53  77 SW7       30.25R
IMPERIAL       CLEAR     55  52  89 S6        30.28R
LEXINGTON      CLEAR     58  51  77 S3        30.24S
MCCOOK         CLEAR     57  56  96 S8        30.26S
OGALLALA       CLEAR     57  53  85 SW6       30.26S
$$

NEZ005>010-023>029-035>040-094-260600-
NORTH CENTRAL NEBRASKA

CITY           SKY/WX    TMP DP  RH WIND       PRES   REMARKS
VALENTINE      MOCLDY    65  44  46 S5        30.17S
AINSWORTH      LGT RAIN  61  51  70 S7        30.19F
BROKEN BOW     CLOUDY    63  48  58 SW6       30.23R
O`NEILL        MOCLDY    61  44  54 S5        30.19R
ORD            MOCLDY    61  47  59 S8        30.19R
THEDFORD       CLOUDY    61  54  76 SW6       30.24S
$$

NEZ041-046>049-061>064-073>077-083>087-260600-
SOUTH CENTRAL NEBRASKA

CITY           SKY/WX    TMP DP  RH WIND       PRES   REMARKS
GRAND ISLAND   CLEAR     62  50  64 S10       30.22S
AURORA         PTCLDY    58  49  71 SW7       30.22S
HASTINGS       CLEAR     61  48  62 SW5       30.26R
HEBRON         CLOUDY    61  53  74 SW7       30.23F
HOLDREGE       CLEAR     57  50  77 S8        30.24F
KEARNEY *      CLEAR     57  46  67 S8        30.24F
YORK           CLEAR     59  48  67 SW7       30.22S
$$

NEZ011>018-030>034-042>045-260600-
NORTHEAST NEBRASKA

CITY           SKY/WX    TMP DP  RH WIND       PRES   REMARKS
NORFOLK        PTCLDY    59  42  53 S10       30.18S
ALBION         CLEAR     61  44  53 CALM      30.20S
BLAIR          CLEAR     60  46  57 S5        30.19S
FREMONT        CLEAR     62  44  51 S5        30.19S
TEKAMAH        CLEAR     55  39  54 CALM      30.18S
WAYNE          CLEAR     55  45  68 CALM      30.17S
$$

NEZ050>053-065>068-078-088>093-260600-
SOUTHEAST NEBRASKA

CITY           SKY/WX    TMP DP  RH WIND       PRES   REMARKS
LINCOLN        MOCLDY    64  49  57 SW7       30.21S
OMAHA EPPLEY   CLEAR     63  46  54 E5        30.19S
BEATRICE       CLEAR     59  51  75 S5        30.22S
FALLS CITY     CLEAR     57  52  83 S5        30.21F
NEBRASKA CITY  CLEAR     59  50  71 SW6       30.22S
PLATTSMOUTH    PTCLDY    61  47  59 S6        30.20F
$$

NEZ044-045-051>053-067-260600-
OMAHA AREA

CITY           SKY/WX    TMP DP  RH WIND       PRES   REMARKS
OMAHA EPPLEY   CLEAR     63  46  54 E5        30.19S
BLAIR          CLEAR     60  46  57 S5        30.19S
FREMONT        CLEAR     62  44  51 S5        30.19S
MILLARD        CLEAR     62  51  66 CALM      30.19S
OFFUTT AFB     CLEAR     54  49  86 CALM      30.19S
PLATTSMOUTH    PTCLDY    61  47  59 S6        30.20F
WAHOO          FAIR      59  45  59 S6        30.19F
$$




USA.gov is the U.S. government's official web portal to all federal, state and local government web resources and services.